Voltar ao catálogo

STARLINK-34179

AtivoComunicaçõesVLEO
NORAD 64103·PAYLOAD·🇺🇸 United States

Lançado May 23, 2025 de Vandenberg Space Force Base

Loading…

Próximas Passagens (próximas 24 horas)

TLE

AtualizadoSource: CelesTrak SupGP

Época: Sep 15, 2026, 02:41 UTC

1 64103C 25110H   26258.11229167 -.00048632  00000+0 -15638-2 0  2582
2 64103  53.1587 226.8475 0001493  88.9022 316.3070 15.31727774    10

Acompanhe STARLINK-34179 em tempo real com AllMySat

Download on the App Store